Poplar Bluff, MO

10:04 AM CST on November 21, 2017 (GMT -0600)
Poplar Bluff Municipal

Weather History for KPOF - December, 2014

Change the Weather History Date:

Saturday, December 27, 2014

  Actual Average Record
Temperature  
Mean Temperature 46 °F -  
Max Temperature 52 °F 43 °F 70 °F (2008)
Min Temperature 39 °F 25 °F -1 °F (1924)
Degree Days  
Heating Degree Days 20    
Moisture  
Dew Point 44 °F    
Average Humidity 90    
Maximum Humidity 96    
Minimum Humidity 80    
Precipitation  
Precipitation 0.56 in - - ()
Sea Level Pressure  
Sea Level Pressure 30.13 in    
Wind  
Wind Speed 5 mph (NNE)    
Max Wind Speed 14 mph    
Max Gust Speed -    
Visibility 5 miles    
Events Rain    
Averages and records for this station are not official NWS values.
T = Trace of Precipitation, MM = Missing Value Source: NWS Daily Summary

Daily Weather History Graph

Daily Weather History Graph

Search for Another Location

Airport or City:

Trip Planner

Search our weather history database for the weather conditions in past years. The results will help you decide how hot, cold, wet, or windy it might be!

Date:

Astronomy

Dec. 27, 2014 Rise Set
Actual Time 7:12 AM CST 4:52 PM CST
Civil Twilight 6:43 AM CST 5:21 PM CST
Nautical Twilight 6:11 AM CST 5:53 PM CST
Astronomical Twilight 5:39 AM CST 6:25 PM CST
Moon 11:09 AM CST (12/27) 11:32 PM CST (12/27)
Length of Visible Light 10h 37m
Length of Day
9h 39m
Waxing Crescent, 38% of the Moon is Illuminated
Dec 27
Waxing Crescent
Dec 28
First Quarter
Jan 4
Full
Jan 13
Last Quarter
Jan 20
New

Hourly Weather History & Observations

Time (CST) Temp. Windchill Dew Point Humidity Pressure Visibility Wind Dir Wind Speed Gust Speed Precip Events Conditions
12:07 AM 46.9 °F - 44.1 °F 90% 30.11 in 2.5 mi SE 4.6 mph - 0.04 in Rain Rain
12:09 AM 46.9 °F - 44.1 °F 90% 30.11 in 3.0 mi SSE 5.8 mph - 0.05 in Rain Rain
12:53 AM 46.9 °F - 44.1 °F 90% 30.10 in 3.0 mi SE 4.6 mph - 0.10 in Rain Light Rain
1:16 AM 46.0 °F 44.8 °F 44.1 °F 93% 30.10 in 4.0 mi ESE 3.5 mph - 0.02 in Rain Light Rain
1:25 AM 46.0 °F - 44.1 °F 93% 30.11 in 2.5 mi Calm Calm - 0.02 in Rain Light Rain
1:31 AM 46.0 °F 44.8 °F 44.1 °F 93% 30.11 in 1.8 mi SSE 3.5 mph - 0.04 in Rain Rain
1:39 AM 46.0 °F - 44.1 °F 93% 30.12 in 2.0 mi Calm Calm - 0.07 in Rain Rain
1:53 AM 46.9 °F - 44.1 °F 90% 30.13 in 3.0 mi Calm Calm - 0.09 in Rain Light Rain
2:33 AM 46.0 °F 43.9 °F 44.1 °F 93% 30.12 in 2.0 mi SE 4.6 mph - 0.01 in   Overcast
2:53 AM 46.0 °F 44.8 °F 44.1 °F 93% 30.12 in 2.5 mi SE 3.5 mph - 0.01 in   Overcast
2:57 AM 46.0 °F 44.8 °F 44.1 °F 93% 30.12 in 3.0 mi SE 3.5 mph - N/A   Overcast
3:17 AM 46.0 °F 44.8 °F 44.1 °F 93% 30.11 in 3.0 mi SE 3.5 mph - N/A   Overcast
3:38 AM 46.0 °F 43.9 °F 44.1 °F 93% 30.11 in 2.5 mi SE 4.6 mph - N/A   Overcast
3:53 AM 46.0 °F 43.9 °F 44.1 °F 93% 30.11 in 2.0 mi SE 4.6 mph - N/A   Overcast
4:53 AM 46.9 °F - 45.0 °F 93% 30.10 in 2.0 mi SSE 5.8 mph - N/A   Overcast
5:10 AM 46.9 °F - 45.0 °F 93% 30.10 in 1.8 mi SSE 5.8 mph - N/A   Overcast
5:53 AM 48.0 °F - 46.0 °F 93% 30.11 in 1.2 mi Calm Calm - 0.00 in Rain Light Rain
6:12 AM 48.0 °F - 46.0 °F 93% 30.11 in 2.0 mi SSE 3.5 mph - 0.01 in Rain Light Rain
6:27 AM 48.0 °F - 46.0 °F 93% 30.12 in 2.5 mi South 4.6 mph - 0.01 in Rain Light Rain
6:53 AM 48.0 °F - 46.9 °F 96% 30.12 in 3.0 mi Calm Calm - 0.02 in Rain Light Rain
7:07 AM 48.0 °F - 46.0 °F 93% 30.11 in 3.0 mi SE 4.6 mph - 0.00 in Rain Light Rain
7:53 AM 48.0 °F - 46.0 °F 93% 30.14 in 4.0 mi SSE 5.8 mph - 0.01 in   Overcast
8:09 AM 48.9 °F - 46.0 °F 90% 30.13 in 3.0 mi SSE 4.6 mph - N/A   Overcast
8:29 AM 48.9 °F - 46.9 °F 93% 30.13 in 2.5 mi SSE 4.6 mph - N/A   Overcast
8:42 AM 48.9 °F - 46.9 °F 93% 30.13 in 2.5 mi SSE 6.9 mph - N/A   Overcast
8:53 AM 48.9 °F - 46.9 °F 93% 30.14 in 3.0 mi SSE 5.8 mph - N/A   Overcast
9:32 AM 50.0 °F - 48.0 °F 93% 30.14 in 2.5 mi SSE 3.5 mph - 0.01 in Rain Light Rain
9:53 AM 50.0 °F - 48.0 °F 93% 30.15 in 3.0 mi SE 4.6 mph - 0.01 in Rain Light Rain
10:05 AM 50.0 °F - 48.0 °F 93% 30.14 in 2.5 mi Calm Calm - 0.01 in Rain Light Rain
10:22 AM 50.0 °F - 48.0 °F 93% 30.14 in 4.0 mi SSE 4.6 mph - 0.01 in Rain Light Rain
10:53 AM 50.0 °F - 48.0 °F 93% 30.15 in 5.0 mi Calm Calm - 0.01 in   Overcast
11:20 AM 50.0 °F - 48.0 °F 93% 30.14 in 2.0 mi West 3.5 mph - 0.01 in Rain Light Rain
11:53 AM 50.0 °F - 48.0 °F 93% 30.13 in 3.0 mi Calm Calm - 0.03 in Rain Light Rain
12:05 PM 51.1 °F - 48.0 °F 89% 30.11 in 4.0 mi NNW 3.5 mph - 0.00 in Rain Light Rain
12:20 PM 51.1 °F - 48.0 °F 89% 30.11 in 3.0 mi NNW 5.8 mph - 0.00 in Rain Light Rain
12:28 PM 51.1 °F - 48.0 °F 89% 30.11 in 2.0 mi NW 4.6 mph - 0.00 in Rain Light Rain
12:50 PM 51.8 °F - 48.2 °F 88% 30.10 in 3.0 mi NW 4.6 mph - 0.01 in   Overcast
12:53 PM 51.1 °F - 48.9 °F 92% 30.11 in 3.0 mi NW 4.6 mph - 0.01 in   Overcast
1:09 PM 52.0 °F - 48.9 °F 89% 30.09 in 10.0 mi NNW 4.6 mph - N/A   Overcast
1:30 PM 52.0 °F - 48.9 °F 89% 30.09 in 10.0 mi NNW 8.1 mph - N/A   Overcast
1:53 PM 52.0 °F - 46.9 °F 83% 30.09 in 10.0 mi North 9.2 mph - N/A   Overcast
2:10 PM 52.0 °F - 46.9 °F 83% 30.09 in 10.0 mi North 6.9 mph - N/A   Overcast
2:32 PM 51.1 °F - 46.0 °F 83% 30.09 in 10.0 mi North 8.1 mph - N/A   Overcast
2:53 PM 51.1 °F - 46.0 °F 83% 30.12 in 10.0 mi NW 11.5 mph - N/A   Overcast
3:48 PM 48.2 °F - 42.8 °F 82% 30.10 in 10.0 mi NNW 11.5 mph - N/A   Overcast
3:53 PM 48.0 °F - 42.1 °F 80% 30.12 in 10.0 mi NNW 9.2 mph - N/A   Overcast
4:53 PM 46.0 °F 41.4 °F 42.1 °F 86% 30.11 in 10.0 mi NNW 9.2 mph - 0.00 in   Overcast
5:41 PM 45.0 °F 40.1 °F 41.0 °F 86% 30.15 in 5.0 mi NNW 9.2 mph - 0.03 in Rain Light Rain
5:53 PM 45.0 °F 40.6 °F 41.0 °F 86% 30.15 in 5.0 mi North 8.1 mph - 0.04 in Rain Light Rain
6:22 PM 44.1 °F 37.7 °F 41.0 °F 89% 30.16 in 7.0 mi North 12.7 mph - 0.01 in Rain Light Rain
6:50 PM 42.8 °F 37.0 °F 39.2 °F 87% 30.18 in 4.0 mi NNW 10.4 mph - 0.05 in Rain Rain
6:53 PM 43.0 °F 37.7 °F 39.9 °F 89% 30.19 in 3.0 mi North 9.2 mph - 0.07 in Rain Heavy Rain
7:08 PM 43.0 °F 37.2 °F 39.9 °F 89% 30.17 in 5.0 mi North 10.4 mph - 0.06 in Rain Rain
7:53 PM 42.1 °F 37.1 °F 39.0 °F 89% 30.16 in 10.0 mi North 8.1 mph - 0.15 in Rain Light Rain
7:58 PM 42.1 °F 37.1 °F 39.0 °F 89% 30.15 in 10.0 mi NNW 8.1 mph - 0.00 in Rain Light Rain
8:41 PM 42.1 °F 35.7 °F 37.9 °F 85% 30.16 in 10.0 mi North 11.5 mph - 0.01 in Rain Light Rain
8:53 PM 42.1 °F 36.6 °F 37.9 °F 85% 30.17 in 10.0 mi North 9.2 mph - 0.01 in   Overcast
9:34 PM 41.0 °F 33.5 °F 37.0 °F 86% 30.18 in 10.0 mi NNW 13.8 mph - N/A   Overcast
9:48 PM 41.0 °F 34.3 °F 35.6 °F 81% 30.16 in 10.0 mi North 11.5 mph - N/A   Overcast
9:53 PM 41.0 °F 35.2 °F 37.0 °F 86% 30.18 in 10.0 mi North 9.2 mph - N/A   Overcast
10:53 PM 39.9 °F 32.9 °F 35.1 °F 83% 30.19 in 10.0 mi NNW 11.5 mph - N/A   Overcast
11:53 PM 39.0 °F 32.8 °F 34.0 °F 82% 30.19 in 10.0 mi NNW 9.2 mph - N/A   Overcast